Погода в Выгоде

Украина / Ивано-Франковская область     48°55′40″N   23°55′09″E
темп.,
°C
ветер,
м/с
пор.,
м/с
влажн.,
%
обл.,
%
осадки,
мм/ч
давл.,
гПа
погр.,
м
16 октября, сб
сб1600:00+4юз32694 0.0 101930
03:00+3юз33674 0.0 101933
06:00+4зюз326532 0.0 101827
09:00+7з1159100 0.0 101917
12:00+9сз3572100 0.0 1020512
15:00+12ссз3452100 0.0 10191245
18:00+8ссз226693 0.0 102016
21:00+5з22808 0.0 102216
17 октября, вс
вс1700:00+3з22918 0.0 102313
03:00+2з11925 0.0 102310
06:00+2зюз11939 0.0 102310
09:00+3юз11885 0.0 102341
12:00+9ссв116541 0.0 1022670
15:00+11ссв22578 0.0 1020729
18:00+8в11708 0.0 102011
21:00+5ююз2182100 0.0 102211
18 октября, пн
пн1800:00+5юз2283100 0.0 102221
03:00+5юз2279100 0.0 102239
06:00+5юз2283100 0.0 102129
09:00+6зюз2478100 0.0 102291
12:00+11з4654100 0.0 10221319
15:00+11сз5656100 0.1 10211331
18:00+9зсз376776 0.0 1022256
21:00+9з2768100 0.0 1023242
19 октября, вт
вт1900:00+9з41074100 0.1 1023811
03:00+8зсз3791100 1.1 1025484
06:00+7сз3794100 1.9 1026480
09:00+6ссв2393100 2.3 1028322
12:00+8ссз118159 0.0 1029468
15:00+9ссз237788 0.1 1028451
18:00+8ссв118399 0.0 102718
21:00+8ююв118642 0.0 102821
20 октября, ср
ср2000:00+7ю228898 0.0 102762
03:00+5ююз2291100 0.0 102635
06:00+5ю228843 0.0 102526
09:00+6ю2482100 0.0 102483
12:00+14ююз384935 0.0 1021948
15:00+16юз484310 0.0 10191010
18:00+12ююз2356100 0.0 101888
21:00+9ю2469100 0.0 101788